| time (UTC) | temp F | wind direction | speed MPH | gust MPH | rain 1hr in | rain 24hr in | rain mn in | humidity % | barometer mb |
| 20260508231016 | 71 | 248 | 7.0 | 13.0 | 0.00 | 0.00 | 0.00 | 41 | 1010.0 |
| 20260508230017 | 71 | 225 | 6.0 | 13.0 | 0.00 | 0.00 | 0.00 | 42 | 1010.0 |
| 20260508225036 | 72 | 248 | 6.0 | 14.0 | 0.00 | 0.00 | 0.00 | 42 | 1010.2 |
| 20260508224016 | 72 | 248 | 6.0 | 13.0 | 0.00 | 0.00 | 0.00 | 41 | 1010.4 |
| 20260508223016 | 72 | 248 | 6.0 | 13.0 | 0.00 | 0.00 | 0.00 | 41 | 1010.4 |
| 20260508222016 | 72 | 248 | 5.0 | 10.0 | 0.00 | 0.00 | 0.00 | 43 | 1010.3 |
| 20260508221016 | 71 | 248 | 6.0 | 12.0 | 0.00 | 0.00 | 0.00 | 42 | 1010.2 |
| 20260508220056 | 72 | 248 | 7.0 | 12.0 | 0.00 | 0.00 | 0.00 | 41 | 1010.2 |
| 20260508215016 | 73 | 225 | 6.0 | 14.0 | 0.00 | 0.00 | 0.00 | 40 | 1010.1 |
| 20260508214016 | 74 | 248 | 6.0 | 15.0 | 0.00 | 0.00 | 0.00 | 40 | 1010.0 |
| 20260508213016 | 74 | 248 | 6.0 | 13.0 | 0.00 | 0.00 | 0.00 | 42 | 1010.0 |
| 20260508212056 | 74 | 248 | 6.0 | 13.0 | 0.00 | 0.00 | 0.00 | 41 | 1010.3 |
| 20260508211016 | 74 | 248 | 7.0 | 15.0 | 0.00 | 0.00 | 0.00 | 41 | 1010.4 |
| 20260508210016 | 74 | 248 | 6.0 | 15.0 | 0.00 | 0.00 | 0.00 | 42 | 1010.7 |
| 20260508205016 | 74 | 248 | 7.0 | 16.0 | 0.00 | 0.00 | 0.00 | 39 | 1010.7 |
| 20260508204016 | 74 | 248 | 6.0 | 14.0 | 0.00 | 0.00 | 0.00 | 38 | 1010.9 |
| 20260508203016 | 74 | 248 | 7.0 | 16.0 | 0.00 | 0.00 | 0.00 | 39 | 1011.1 |
| 20260508202016 | 74 | 248 | 6.0 | 13.0 | 0.00 | 0.00 | 0.00 | 39 | 1011.4 |
| 20260508201016 | 74 | 225 | 6.0 | 14.0 | 0.00 | 0.00 | 0.00 | 38 | 1011.4 |
| 20260508200016 | 74 | 248 | 6.0 | 15.0 | 0.00 | 0.00 | 0.00 | 40 | 1011.7 |
| 20260508195016 | 74 | 248 | 7.0 | 15.0 | 0.00 | 0.00 | 0.00 | 39 | 1011.8 |
| 20260508194036 | 75 | 248 | 7.0 | 15.0 | 0.00 | 0.00 | 0.00 | 38 | 1012.2 |
| 20260508193016 | 75 | 248 | 6.0 | 15.0 | 0.00 | 0.00 | 0.00 | 42 | 1012.2 |
| 20260508192036 | 75 | 248 | 6.0 | 11.0 | 0.00 | 0.00 | 0.00 | 39 | 1012.4 |
| 20260508191016 | 74 | 248 | 7.0 | 14.0 | 0.00 | 0.00 | 0.00 | 37 | 1012.6 |
| 20260508190016 | 74 | 248 | 8.0 | 17.0 | 0.00 | 0.00 | 0.00 | 41 | 1012.7 |
| 20260508185016 | 74 | 248 | 8.0 | 17.0 | 0.00 | 0.00 | 0.00 | 41 | 1012.7 |
| 20260508184016 | 74 | 248 | 6.0 | 14.0 | 0.00 | 0.00 | 0.00 | 43 | 1012.6 |
| 20260508183016 | 74 | 248 | 7.0 | 15.0 | 0.00 | 0.00 | 0.00 | 40 | 1012.7 |
| 20260508182016 | 74 | 248 | 6.0 | 12.0 | 0.00 | 0.00 | 0.00 | 40 | 1012.5 |
| 20260508181016 | 75 | 248 | 5.0 | 10.0 | 0.00 | 0.00 | 0.00 | 39 | 1012.5 |
| 20260508180016 | 74 | 248 | 5.0 | 14.0 | 0.00 | 0.00 | 0.00 | 38 | 1012.8 |
| 20260508175016 | 73 | 248 | 5.0 | 11.0 | 0.00 | 0.00 | 0.00 | 45 | 1012.9 |
| 20260508174016 | 73 | 248 | 8.0 | 21.0 | 0.00 | 0.00 | 0.00 | 42 | 1013.5 |
| 20260508173016 | 73 | 248 | 7.0 | 16.0 | 0.00 | 0.00 | 0.00 | 38 | 1013.8 |
| 20260508172016 | 73 | 248 | 5.0 | 13.0 | 0.00 | 0.00 | 0.00 | 43 | 1013.9 |
| 20260508171016 | 73 | 248 | 5.0 | 10.0 | 0.00 | 0.00 | 0.00 | 40 | 1014.0 |
| 20260508170016 | 72 | 225 | 6.0 | 15.0 | 0.00 | 0.00 | 0.00 | 38 | 1014.3 |
| 20260508165016 | 72 | 248 | 6.0 | 14.0 | 0.00 | 0.00 | 0.00 | 39 | 1014.3 |
| 20260508164016 | 72 | 248 | 5.0 | 13.0 | 0.00 | 0.00 | 0.00 | 40 | 1014.6 |
| 20260508163056 | 72 | 248 | 4.0 | 13.0 | 0.00 | 0.00 | 0.00 | 40 | 1014.9 |
| 20260508162016 | 72 | 248 | 6.0 | 13.0 | 0.00 | 0.00 | 0.00 | 40 | 1015.1 |
| 20260508161016 | 72 | 248 | 4.0 | 10.0 | 0.00 | 0.00 | 0.00 | 44 | 1015.1 |
| 20260508160016 | 71 | 248 | 4.0 | 10.0 | 0.00 | 0.00 | 0.00 | 43 | 1015.3 |
| 20260508155016 | 71 | 248 | 5.0 | 10.0 | 0.00 | 0.00 | 0.00 | 44 | 1015.4 |
| 20260508154016 | 71 | 248 | 5.0 | 11.0 | 0.00 | 0.00 | 0.00 | 45 | 1015.6 |
| 20260508153016 | 72 | 248 | 4.0 | 11.0 | 0.00 | 0.00 | 0.00 | 42 | 1015.8 |
| 20260508152016 | 72 | 248 | 4.0 | 12.0 | 0.00 | 0.00 | 0.00 | 43 | 1015.9 |
| 20260508151036 | 71 | 248 | 4.0 | 10.0 | 0.00 | 0.00 | 0.00 | 45 | 1016.2 |
| 20260508150016 | 70 | 248 | 6.0 | 13.0 | 0.00 | 0.00 | 0.00 | 43 | 1016.2 |
| 20260508145016 | 70 | 248 | 5.0 | 12.0 | 0.00 | 0.00 | 0.00 | 43 | 1016.3 |
| 20260508144036 | 69 | 248 | 5.0 | 10.0 | 0.00 | 0.00 | 0.00 | 48 | 1016.4 |
| 20260508143016 | 67 | 248 | 3.0 | 7.0 | 0.00 | 0.00 | 0.00 | 50 | 1016.5 |
| 20260508142036 | 65 | 180 | 2.0 | 7.0 | 0.00 | 0.00 | 0.00 | 52 | 1016.4 |
| 20260508141016 | 64 | 248 | 2.0 | 6.0 | 0.00 | 0.00 | 0.00 | 55 | 1016.5 |
| 20260508140036 | 63 | 180 | 2.0 | 6.0 | 0.00 | 0.00 | 0.00 | 55 | 1016.4 |
| 20260508135016 | 62 | 180 | 2.0 | 4.0 | 0.00 | 0.00 | 0.00 | 58 | 1016.5 |
| 20260508134016 | 60 | 180 | 2.0 | 6.0 | 0.00 | 0.00 | 0.00 | 58 | 1016.5 |
| 20260508133036 | 59 | 180 | 1.0 | 6.0 | 0.00 | 0.00 | 0.00 | 61 | 1016.5 |
| 20260508132016 | 58 | 180 | 2.0 | 4.0 | 0.00 | 0.00 | 0.00 | 62 | 1016.4 |
| 20260508131016 | 57 | 248 | 2.0 | 4.0 | 0.00 | 0.00 | 0.00 | 65 | 1016.3 |
| 20260508130016 | 55 | 203 | 1.0 | 4.0 | 0.00 | 0.00 | 0.00 | 66 | 1016.4 |
| 20260508125016 | 54 | 180 | 1.0 | 3.0 | 0.00 | 0.00 | 0.00 | 70 | 1016.3 |
| 20260508124016 | 52 | 248 | 1.0 | 3.0 | 0.00 | 0.00 | 0.00 | 72 | 1016.6 |
| 20260508123036 | 51 | 225 | 1.0 | 5.0 | 0.00 | 0.00 | 0.00 | 74 | 1016.4 |
| 20260508122016 | 49 | 248 | 1.0 | 4.0 | 0.00 | 0.00 | 0.00 | 79 | 1016.4 |
| 20260508121016 | 48 | 225 | 1.0 | 6.0 | 0.00 | 0.00 | 0.00 | 83 | 1016.3 |
| 20260508120016 | 46 | 248 | 1.0 | 3.0 | 0.00 | 0.00 | 0.00 | 86 | 1016.3 |
| 20260508115036 | 44 | 248 | 1.0 | 3.0 | 0.00 | 0.00 | 0.00 | 86 | 1016.2 |
| 20260508114036 | 43 | 0.0 | 0.0 | 0.00 | 0.00 | 0.00 | 84 | 1016.1 | |
| 20260508113016 | 43 | 0.0 | 0.0 | 0.00 | 0.00 | 0.00 | 84 | 1016.0 | |
| 20260508112016 | 42 | 0.0 | 0.0 | 0.00 | 0.00 | 0.00 | 84 | 1016.0 | |
| 20260508111016 | 42 | 0.0 | 0.0 | 0.00 | 0.00 | 0.00 | 84 | 1015.9 | |
| 20260508110016 | 43 | 0.0 | 0.0 | 0.00 | 0.00 | 0.00 | 84 | 1015.9 | |
| 20260508105119 | 43 | 0.0 | 0.0 | 0.00 | 0.00 | 0.00 | 84 | 1015.9 | |
| 20260508104016 | 43 | 0.0 | 1.0 | 0.00 | 0.00 | 0.00 | 85 | 1015.9 | |
| 20260508103016 | 43 | 203 | 1.0 | 3.0 | 0.00 | 0.00 | 0.00 | 85 | 1015.7 |
| 20260508102036 | 43 | 225 | 1.0 | 3.0 | 0.00 | 0.00 | 0.00 | 85 | 1015.7 |
| 20260508101016 | 43 | 248 | 2.0 | 3.0 | 0.00 | 0.00 | 0.00 | 86 | 1015.5 |
| 20260508100016 | 43 | 225 | 2.0 | 4.0 | 0.00 | 0.00 | 0.00 | 86 | 1015.6 |
| 20260508095016 | 43 | 225 | 2.0 | 5.0 | 0.00 | 0.00 | 0.00 | 86 | 1015.6 |
| 20260508094036 | 43 | 248 | 2.0 | 4.0 | 0.00 | 0.00 | 0.00 | 86 | 1015.8 |
| 20260508093016 | 42 | 248 | 2.0 | 4.0 | 0.00 | 0.00 | 0.00 | 86 | 1015.7 |
| 20260508092016 | 42 | 248 | 2.0 | 4.0 | 0.00 | 0.00 | 0.00 | 86 | 1015.8 |
| 20260508091016 | 42 | 225 | 1.0 | 4.0 | 0.00 | 0.00 | 0.00 | 86 | 1015.7 |
| 20260508090016 | 42 | 225 | 1.0 | 2.0 | 0.00 | 0.00 | 0.00 | 86 | 1015.8 |
| 20260508085036 | 42 | 225 | 1.0 | 3.0 | 0.00 | 0.00 | 0.00 | 86 | 1015.8 |
| 20260508084016 | 42 | 0.0 | 2.0 | 0.00 | 0.00 | 0.00 | 85 | 1015.8 | |
| 20260508083016 | 42 | 0.0 | 2.0 | 0.00 | 0.00 | 0.00 | 85 | 1015.9 | |
| 20260508082036 | 42 | 0.0 | 0.0 | 0.00 | 0.00 | 0.00 | 84 | 1015.8 | |
| 20260508081016 | 42 | 0.0 | 0.0 | 0.00 | 0.00 | 0.00 | 83 | 1015.8 | |
| 20260508080016 | 42 | 0.0 | 0.0 | 0.00 | 0.00 | 0.00 | 83 | 1015.9 | |
| 20260508075016 | 42 | 0.0 | 0.0 | 0.00 | 0.00 | 0.00 | 83 | 1015.8 | |
| 20260508074016 | 43 | 0.0 | 0.0 | 0.00 | 0.00 | 0.00 | 82 | 1015.8 | |
| 20260508073016 | 43 | 0.0 | 0.0 | 0.00 | 0.00 | 0.00 | 82 | 1015.8 | |
| 20260508072016 | 43 | 0.0 | 0.0 | 0.00 | 0.00 | 0.00 | 81 | 1015.9 | |
| 20260508071016 | 43 | 0.0 | 0.0 | 0.00 | 0.00 | 0.00 | 81 | 1015.9 | |
| 20260508070016 | 43 | 0.0 | 0.0 | 0.00 | 0.00 | 0.00 | 81 | 1015.9 | |
| 20260508065016 | 44 | 0.0 | 0.0 | 0.00 | 0.00 | 0.00 | 80 | 1016.0 | |
| 20260508064016 | 44 | 0.0 | 0.0 | 0.00 | 0.00 | 0.00 | 80 | 1016.1 | |
| 20260508063016 | 44 | 0.0 | 0.0 | 0.00 | 0.00 | 0.00 | 80 | 1016.1 | |
| 20260508062036 | 44 | 0.0 | 0.0 | 0.00 | 0.00 | 0.00 | 79 | 1016.2 | |
| 20260508061016 | 45 | 0.0 | 0.0 | 0.00 | 0.00 | 0.00 | 79 | 1016.2 | |
| 20260508060016 | 45 | 0.0 | 0.0 | 0.00 | 0.00 | 0.00 | 79 | 1016.3 | |
| 20260508055036 | 45 | 0.0 | 2.0 | 0.00 | 0.00 | 0.00 | 79 | 1016.3 | |
| 20260508054016 | 45 | 0.0 | 1.0 | 0.00 | 0.00 | 0.00 | 78 | 1016.4 | |
| 20260508053036 | 45 | 0.0 | 1.0 | 0.00 | 0.00 | 0.00 | 78 | 1016.4 | |
| 20260508052036 | 45 | 0.0 | 2.0 | 0.00 | 0.00 | 0.00 | 78 | 1016.5 | |
| 20260508051016 | 46 | 0.0 | 2.0 | 0.00 | 0.00 | 0.00 | 78 | 1016.6 | |
| 20260508050016 | 46 | 0.0 | 3.0 | 0.00 | 0.00 | 0.00 | 77 | 1016.7 | |
| 20260508045016 | 46 | 0.0 | 0.0 | 0.00 | 0.00 | 0.00 | 75 | 1016.5 | |
| 20260508044016 | 46 | 0.0 | 0.0 | 0.00 | 0.00 | 0.00 | 75 | 1016.4 | |
| 20260508043016 | 46 | 0.0 | 0.0 | 0.00 | 0.00 | 0.00 | 75 | 1016.3 | |
| 20260508042016 | 46 | 0.0 | 0.0 | 0.00 | 0.00 | 0.00 | 75 | 1016.3 | |
| 20260508041036 | 47 | 0.0 | 0.0 | 0.00 | 0.00 | 0.00 | 75 | 1016.3 | |
| 20260508040036 | 47 | 0.0 | 0.0 | 0.00 | 0.00 | 0.00 | 74 | 1016.4 | |
| 20260508035036 | 47 | 0.0 | 0.0 | 0.00 | 0.00 | 0.00 | 73 | 1016.5 | |
| 20260508034016 | 48 | 0.0 | 0.0 | 0.00 | 0.00 | 0.00 | 72 | 1016.5 | |
| 20260508033016 | 48 | 0.0 | 0.0 | 0.00 | 0.00 | 0.00 | 71 | 1016.4 | |
| 20260508032036 | 49 | 0.0 | 0.0 | 0.00 | 0.00 | 0.00 | 70 | 1016.4 | |
| 20260508031036 | 49 | 0.0 | 0.0 | 0.00 | 0.00 | 0.00 | 69 | 1016.4 | |
| 20260508030016 | 49 | 0.0 | 0.0 | 0.00 | 0.00 | 0.00 | 68 | 1016.5 | |
| 20260508025016 | 50 | 0.0 | 0.0 | 0.00 | 0.00 | 0.00 | 67 | 1016.3 | |
| 20260508024016 | 50 | 0.0 | 0.0 | 0.00 | 0.00 | 0.00 | 65 | 1016.3 | |
| 20260508023016 | 51 | 0.0 | 0.0 | 0.00 | 0.00 | 0.00 | 65 | 1016.2 | |
| 20260508022016 | 51 | 0.0 | 0.0 | 0.00 | 0.00 | 0.00 | 63 | 1016.1 | |
| 20260508021016 | 52 | 0.0 | 0.0 | 0.00 | 0.00 | 0.00 | 62 | 1016.0 | |
| 20260508020016 | 52 | 0.0 | 1.0 | 0.00 | 0.00 | 0.00 | 61 | 1015.9 | |
| 20260508015016 | 53 | 0.0 | 0.0 | 0.00 | 0.00 | 0.00 | 61 | 1015.6 | |
| 20260508014016 | 54 | 0.0 | 0.0 | 0.00 | 0.00 | 0.00 | 60 | 1015.6 | |
| 20260508013037 | 54 | 0.0 | 0.0 | 0.00 | 0.00 | 0.00 | 58 | 1015.5 | |
| 20260508012016 | 55 | 0.0 | 0.0 | 0.00 | 0.00 | 0.00 | 56 | 1015.5 | |
| 20260508011016 | 56 | 0.0 | 2.0 | 0.00 | 0.00 | 0.00 | 55 | 1015.4 | |
| 20260508010016 | 57 | 270 | 1.0 | 2.0 | 0.00 | 0.00 | 0.00 | 54 | 1015.1 |
| 20260508005016 | 58 | 0.0 | 2.0 | 0.00 | 0.00 | 0.00 | 52 | 1015.0 | |
| 20260508004036 | 58 | 0.0 | 1.0 | 0.00 | 0.00 | 0.00 | 51 | 1014.8 | |
| 20260508003016 | 59 | 0.0 | 1.0 | 0.00 | 0.00 | 0.00 | 49 | 1014.7 | |
| 20260508002036 | 60 | 0.0 | 0.0 | 0.00 | 0.00 | 0.00 | 44 | 1014.6 | |
| 20260508001016 | 61 | 0.0 | 2.0 | 0.00 | 0.00 | 0.00 | 41 | 1014.5 | |
| 20260508000016 | 62 | 270 | 1.0 | 3.0 | 0.00 | 0.00 | 0.00 | 41 | 1014.5 |
| 20260507235016 | 62 | 270 | 1.0 | 4.0 | 0.00 | 0.00 | 0.00 | 37 | 1014.5 |
| 20260507234016 | 63 | 0.0 | 1.0 | 0.00 | 0.00 | 0.00 | 35 | 1014.4 | |
| 20260507233016 | 64 | 0.0 | 3.0 | 0.00 | 0.00 | 0.00 | 35 | 1014.5 | |
| 20260507232016 | 64 | 0 | 2.0 | 4.0 | 0.00 | 0.00 | 0.00 | 34 | 1014.6 |